This is the latest recevied weather packets stored in our database for station/object VR2OT-10. If no packets are shown the sender has not sent any weather packets the latest 1 day(s).
| Time | Temp. | Humidity | Pressure | Rain* | Wind** | Luminosity | Snow |
|---|---|---|---|---|---|---|---|
| 1778014038 | 21.11° C | 87% | 1012.2 hPa | - | 2.68 m/s, 135° | - | - |
| 1778013137 | 21.11° C | 86% | 1012.2 hPa | - | 2.68 m/s, 90° | - | - |
| 1778012237 | 21.11° C | 87% | 1012.3 hPa | - | 2.68 m/s, 135° | - | - |
| 1778011338 | 21.11° C | 86% | 1012.2 hPa | - | 2.68 m/s, 135° | - | - |
| 1778010437 | 21.11° C | 87% | 1012.2 hPa | - | 2.68 m/s, 135° | - | - |
| 1778009538 | 21.11° C | 87% | 1012.2 hPa | - | 3.58 m/s, 135° | - | - |
| 1778007737 | 21.11° C | 86% | 1012 hPa | - | 3.58 m/s, 90° | - | - |
| 1778006838 | 21.11° C | 86% | 1012.2 hPa | - | 4.02 m/s, 90° | - | - |
| 1778005950 | 21.11° C | 88% | 1012.4 hPa | - | 4.02 m/s, 135° | - | - |
| 1778005038 | 21.11° C | 88% | 1012.3 hPa | - | 3.13 m/s, 90° | - | - |
| 1778004138 | 21.11° C | 88% | 1012.3 hPa | - | 4.02 m/s, 90° | - | - |
| 1778003238 | 21.11° C | 88% | 1012.4 hPa | - | 3.58 m/s, 90° | - | - |
| 1778002338 | 20.56° C | 89% | 1012.5 hPa | - | 3.58 m/s, 90° | - | - |
| 1778001438 | 21.11° C | 89% | 1012.7 hPa | - | 4.02 m/s, 90° | - | - |
| 1778000539 | 20.56° C | 92% | 1012.8 hPa | - | 4.02 m/s, 90° | - | - |
| 1777999638 | 20.56° C | 92% | 1012.9 hPa | - | 4.02 m/s, 90° | - | - |
| 1777997838 | 20.56° C | 93% | 1013.1 hPa | - | 3.58 m/s, 135° | - | - |
| 1777996937 | 20.56° C | 93% | 1013.2 hPa | - | 4.02 m/s, 90° | - | - |
| 1777996037 | 20.56° C | 93% | 1013.3 hPa | - | 3.13 m/s, 90° | - | - |
| 1777994237 | 20.56° C | 93% | 1013.7 hPa | - | 1.79 m/s, 90° | - | - |
| 1777992437 | 20.56° C | 93% | 1013.9 hPa | - | 2.68 m/s, 135° | - | - |
| 1777990637 | 20° C | 92% | 1014 hPa | - | 3.13 m/s, 135° | - | - |
| 1777989738 | 20° C | 92% | 1013.9 hPa | - | 2.68 m/s, 90° | - | - |
| 1777988838 | 20° C | 92% | 1013.8 hPa | - | 3.13 m/s, 135° | - | - |
| 1777987038 | 20° C | 93% | 1013.7 hPa | - | 3.13 m/s, 90° | - | - |
* Rain since midnight (hover to see other rain measurements)
** Current wind speed in m/s (hover to see current wind gust speed)